sat.trackr.live / text

‹ back to catalog

STARLINK-32417

NORAD 61673 · 2024-193N

PAYLOAD ACTIVE UNKNOWN

§ Identity

Operator
Country
US
Launch date
2024-10-26
Launch site
AFETR
Launch vehicle
Mass (kg)
RCS (m²)

Purposes: comms

External: N2YO · Heavens-Above · Gunter

§ Orbital elements

Epoch: 2026-05-25T03:19:33.007008Z

Period
94.11 min
Inclination
53.1603°
Eccentricity
0.0001191
Mean motion
15.30204127 rev/d
Perigee alt
474.4 km
Apogee alt
476.0 km
Semi-major
6,853.3 km
B*
8.1122e-6
RAAN
95.7413°
Arg perigee
82.6580°
Mean anomaly
277.4556°
Rev number
8,823

§ Raw data

STARLINK-324171 61673U 24193N   26145.13857647 -.00000119  00000+0  81122-5 0  99912 61673  53.1603  95.7413 0001191  82.6580 277.4556 15.30204127 88235

JSON: /api/v1/satellites/61673 · /tle

For live sub-satellite position, see the globe view (requires WebGL).

§ Visibility from observer

Set your observer location to see the next 7 days of passes ≥ 10°. The values pass through the URL so the page stays shareable.

No JS? Fill the form by hand. The geolocation button needs JavaScript.